Temp
8 8 8 9 8 9 10 10 8 8 10 8 10 9 9 9 8 7 6 5 5 4 6 6 6 5 5 4 4 4 5 5 5 7 9 9 9 10 11 12 13 13 14 14
9 9 10 9 9 9 9 9 8 7 8 9 9 8 8 9 8 8 7 5 5 5 4 5 6 5 5 4 3 4 4 4 4 5 5 6 7 9 10 11 11 12 13 13
9 10 10 10 8 10 9 9 8 8 7 9 7 9 9 9 8 7 7 6 5 5 4 4 5 5 4 4 3 3 3 3 3 4 5 7 8 8 9 10 10 10 12 13
9 9 10 9 8 8 10 9 8 8 8 9 8 8 9 9 7 7 6 5 4 4 4 4 4 4 4 3 3 3 3 3 3 3 4 4 5 4 6 7 8 9 10 13
10 9 9 10 9 8 10 8 8 9 8 8 9 5 9 8 9 9 7 5 5 4 4 3 4 4 4 3 3 3 3 3 3 3 3 4 4 4 5 5 8 8 9 11
8 9 8 8 8 8 8 8 8 7 7 4 9 7 9 9 10 9 8 7 5 5 4 4 4 4 4 3 3 2 2 2 2 2 2 3 3 3 4 5 6 7 8 10
7 9 8 8 9 8 7 6 2 5 2 6 7 7 9 10 9 8 8 6 5 4 4 2 2 3 3 2 2 2 2 2 2 2 2 3 3 3 3 4 5 6 7 9
6 9 8 7 8 8 7 7 4 7 5 5 7 8 12 10 8 7 7 6 5 5 3 2 3 3 2 2 2 1 1 1 1 1 2 2 2 3 3 3 4 5 6 7
4 7 7 7 7 6 7 5 7 3 1 3 6 8 9 9 8 7 6 6 5 4 3 3 3 2 2 2 2 1 1 1 1 1 1 1 1 2 3 3 4 4 5 6
3 7 4 7 7 8 8 7 5 2 4 6 5 5 9 11 10 8 7 6 5 4 3 2 2 2 2 1 1 1 1 1 0 1 1 1 1 1 2 2 3 4 5 5
2 4 6 6 4 6 6 5 6 6 5 3 1 8 5 9 10 8 7 6 5 4 3 2 2 2 1 1 1 1 1 0 0 0 0 0 1 1 1 2 3 4 4 5
5 4 5 6 4 4 6 7 7 5 3 2 3 5 8 7 6 6 5 5 4 4 3 2 2 1 1 1 1 0 0 -0 -0 0 0 0 1 1 1 1 2 3 5 5
5 5 6 8 5 4 5 6 6 4 3 2 2 6 6 4 5 5 4 4 3 2 2 1 1 1 1 1 1 0 0 -0 -0 -0 -0 0 0 0 0 1 2 3 4 5
7 -0 6 11 10 5 4 4 6 4 -0 2 2 3 8 2 1 3 2 1 -0 -1 -1 -0 -0 0 1 1 0 0 0 -0 -0 -0 -0 -0 -0 -0 0 1 1 2 3 4
7 5 -1 1 3 5 4 4 4 3 5 5 3 1 5 4 3 3 0 1 1 0 -1 -1 0 -2 0 1 1 0 0 0 -0 -0 -0 -0 -0 -0 0 1 1 2 3 3
5 5 1 3 -0 2 3 4 3 2 -1 2 -0 5 7 7 5 1 1 2 2 1 0 -1 -2 -1 0 1 2 1 0 -0 -0 -0 -1 -0 0 0 0 1 1 1 2 2
5 3 2 8 -1 -1 6 3 4 3 3 4 4 6 7 7 7 5 6 5 3 3 3 1 0 1 2 3 2 2 1 -0 -0 -0 -0 0 1 1 1 1 1 1 1 2
5 4 2 5 4 11 11 4 4 4 3 4 5 6 6 7 7 5 4 5 5 4 3 2 4 4 3 3 2 2 1 0 -0 -0 -0 0 0 0 0 1 1 1 1 1
4 5 1 6 3 9 10 4 4 6 11 6 6 7 5 6 5 6 7 4 4 4 5 6 7 5 4 3 3 2 1 1 0 -0 0 0 0 0 0 1 1 0 0 1
4 4 4 -1 7 10 14 8 5 6 11 8 6 6 4 5 9 8 9 7 7 5 6 6 6 5 4 4 3 1 1 1 1 1 0 0 0 0 -0 -0 -0 -0 -0 -0
2 1 3 -1 3 6 9 6 5 12 15 7 5 6 4 6 8 8 7 8 7 6 6 6 6 6 6 4 3 2 1 1 2 1 1 0 0 0 0 0 -0 -0 -1 -1
5 3 1 -1 2 10 5 5 11 13 10 8 5 5 5 6 7 7 5 6 7 6 5 5 5 5 4 4 3 3 2 3 2 2 1 1 0 -0 0 1 1 -0 -0 -0
6 7 5 6 8 8 6 10 7 7 9 8 6 6 6 5 5 5 5 5 5 6 6 6 5 5 5 5 3 3 5 3 2 1 2 1 1 1 0 0 1 -0 -1 -1
2 4 3 5 9 7 5 7 5 6 7 8 8 6 4 6 6 6 5 4 4 6 6 7 5 4 4 4 4 5 5 3 2 2 1 1 1 1 0 -0 -1 -1 -0 -1
3 4 3 3 7 6 6 5 7 6 4 6 6 6 6 5 6 5 5 4 5 7 7 7 6 5 6 6 5 5 4 3 2 2 2 1 1 1 1 0 0 0 1 1
1 4 7 9 10 11 13 8 7 5 5 5 5 5 4 4 5 4 3 6 7 7 7 6 7 6 6 6 6 6 5 3 3 2 1 1 1 0 0 0 -0 -0 -1 -1
Height
854 864 874 873 873 862 864 866 875 872 862 866 854 857 851 848 851 852 851 852 851 847 842 840 838 836 832 829 827 820 819 817 816 810 809 806 804 807 809 810 812 814 818 822
863 870 869 870 870 866 865 868 876 873 867 867 859 856 849 846 847 847 848 850 849 847 843 839 837 835 832 828 827 821 822 818 817 814 812 812 811 811 809 811 811 811 815 819
869 869 868 868 876 865 870 873 878 880 870 862 867 853 847 843 845 846 846 846 846 846 844 840 836 837 835 829 827 825 822 820 818 814 814 812 813 813 811 809 811 812 809 814
873 873 870 870 877 872 862 868 874 875 877 874 868 875 852 846 846 844 845 846 846 845 843 842 838 837 836 833 830 828 825 820 816 816 814 813 813 814 813 812 811 808 808 811
873 875 875 871 875 874 864 869 872 873 874 879 865 896 852 852 841 839 841 843 844 844 842 842 841 838 837 834 832 831 824 821 820 817 816 813 813 815 814 812 808 810 813 810
875 875 878 877 876 874 869 869 876 883 886 914 870 882 856 847 839 839 837 838 840 842 841 841 841 840 838 838 835 829 825 822 821 819 816 813 814 815 815 812 808 809 810 808
880 875 879 879 875 873 876 882 930 913 930 900 882 886 854 841 840 839 836 839 838 839 840 840 839 838 838 835 832 826 823 823 820 819 819 815 814 813 814 810 806 808 809 808
899 882 881 880 880 878 882 879 917 909 922 911 881 875 836 838 839 839 838 837 837 837 838 838 837 835 833 831 829 829 828 826 822 821 819 816 815 813 809 808 809 810 810 811
906 889 884 880 880 887 885 901 891 920 940 927 888 866 843 837 839 838 837 836 835 835 836 837 837 835 834 830 829 831 830 827 822 822 816 814 812 812 809 809 811 809 810 810
896 887 892 883 880 881 875 885 904 926 932 919 902 892 854 832 832 834 834 834 834 833 833 835 836 836 836 835 833 831 830 826 823 820 817 814 812 813 812 810 810 808 808 808
893 895 892 887 894 889 891 898 890 897 910 937 959 873 855 839 833 835 834 833 833 832 831 831 832 834 835 835 835 831 826 826 822 820 818 815 814 812 809 808 808 808 806 807
880 891 895 890 892 892 887 882 881 904 926 932 926 893 840 844 843 841 836 832 830 830 829 828 829 829 830 830 829 827 825 827 823 820 817 815 812 810 811 808 809 807 805 806
877 890 896 878 892 892 890 884 883 895 909 922 930 880 846 848 844 839 838 832 829 828 827 826 826 826 828 827 828 828 828 825 822 820 818 816 812 811 811 811 811 808 805 808
871 906 881 859 859 883 896 893 882 890 932 915 903 877 840 858 856 843 840 835 832 829 826 823 823 822 824 825 825 824 823 823 822 821 821 817 816 816 815 813 812 807 808 808
872 885 911 895 887 878 882 886 887 892 877 881 878 886 846 841 845 842 840 835 831 828 827 823 820 818 820 821 823 824 823 823 823 822 821 820 818 816 815 813 813 810 809 810
876 884 901 888 900 891 888 877 881 889 898 884 889 859 831 825 830 839 837 835 831 826 824 823 820 818 816 817 819 822 823 822 821 821 820 818 816 816 815 815 815 813 811 811
873 887 896 868 905 902 865 864 863 866 865 862 865 831 822 824 824 829 825 827 827 821 816 817 818 817 816 816 817 818 821 822 821 820 819 819 818 817 817 818 819 816 815 816
871 879 895 880 881 849 819 841 844 845 847 841 830 820 816 815 817 820 818 818 818 818 816 812 812 814 816 816 817 818 819 821 822 821 821 821 820 819 819 819 818 817 819 821
867 869 901 877 900 838 813 841 842 834 802 813 814 810 817 819 820 809 803 806 807 812 810 810 810 811 814 817 818 818 818 818 821 822 822 823 823 822 820 819 819 820 822 823
868 868 873 910 874 841 798 815 824 824 812 793 804 805 817 819 817 811 801 801 802 804 810 810 810 810 812 815 817 818 818 817 817 819 821 822 822 822 823 823 823 823 823 824
880 887 879 909 884 844 805 816 823 814 790 792 798 801 812 810 800 797 799 798 800 801 804 811 812 810 811 812 812 815 816 815 815 815 817 819 820 821 822 824 825 826 826 826
848 866 886 900 888 831 808 820 804 780 781 786 794 794 800 798 795 795 797 797 797 799 801 806 809 811 814 813 813 812 810 813 814 815 816 817 819 821 822 822 823 826 827 829
831 815 830 824 808 789 791 778 782 782 781 784 785 786 790 796 797 795 794 795 794 793 795 800 804 810 809 810 812 811 810 812 813 814 814 817 817 818 821 823 823 822 823 827
825 814 822 813 780 786 788 780 781 780 780 779 779 779 785 787 790 792 793 793 791 792 791 792 797 802 806 806 808 807 812 813 813 812 814 816 816 817 817 819 821 823 822 822
800 805 816 811 785 783 779 777 770 773 777 779 779 778 779 784 784 786 788 789 789 787 789 789 792 795 795 801 802 804 806 807 809 811 811 809 811 813 815 816 816 818 821 822
789 788 784 775 758 755 749 752 754 765 766 767 773 776 775 778 777 777 780 779 782 783 782 782 783 787 790 794 794 795 798 802 804 805 806 807 807 807 808 808 813 814 815 817
Wind_Speed
6 8 4 4 6 4 5 3 3 5 3 6 4 5 7 3 3 5 6 6 6 7 10 14 16 18 21 22 23 21 19 17 17 17 11 9 6 5 3 3 10 21 24 28
6 4 2 1 4 5 4 3 3 7 5 3 5 10 7 3 4 4 4 7 6 6 7 14 17 18 21 21 23 21 19 17 16 14 12 8 12 7 4 5 7 9 24 25
5 0 3 3 4 2 3 4 3 4 7 3 7 6 4 3 3 3 5 5 5 6 7 8 16 15 18 21 22 20 20 17 15 14 11 8 3 4 3 3 6 7 11 25
4 4 2 2 2 3 3 3 3 4 6 3 5 4 5 4 7 5 7 6 7 7 5 5 12 15 16 18 18 18 17 17 17 14 12 11 8 9 7 9 8 10 7 17
1 5 4 2 3 4 3 1 2 2 3 3 2 3 6 4 5 5 6 7 6 6 5 6 9 13 15 16 17 17 16 15 15 14 12 12 10 9 11 10 8 7 5 9
2 1 1 2 2 4 3 3 4 3 2 3 3 3 5 3 4 5 4 5 6 5 5 6 8 10 14 13 14 15 16 16 14 13 12 11 11 12 12 10 8 9 8 6
5 2 3 1 2 3 3 4 4 6 4 4 2 2 8 5 5 5 5 6 6 5 3 5 6 9 12 14 14 16 17 17 15 14 12 11 11 11 11 12 12 11 10 7
4 6 3 4 2 2 4 4 5 4 3 5 2 4 4 4 6 6 6 6 5 5 4 4 6 9 12 14 14 13 14 14 14 13 12 10 10 11 11 11 11 9 10 9
4 4 3 2 2 3 3 5 3 6 2 2 4 7 7 4 8 7 8 6 8 6 5 5 4 7 10 13 14 11 12 13 13 12 13 12 11 10 10 10 10 8 7 8
4 3 1 3 2 3 1 7 4 3 3 5 5 6 5 5 7 6 7 7 7 6 6 4 4 5 6 8 11 10 10 11 12 12 12 11 11 10 8 8 8 8 8 8
4 3 4 1 1 3 1 2 5 4 3 4 2 6 6 5 5 7 8 8 7 7 7 5 3 4 5 6 6 9 11 12 12 11 11 10 10 11 10 7 8 7 8 8
3 4 3 5 2 1 1 3 3 4 4 2 3 7 2 7 7 7 9 8 7 5 6 6 6 6 7 6 7 9 10 11 12 11 11 10 10 10 9 8 7 6 4 5
6 1 3 5 4 4 3 3 2 5 3 5 6 6 2 6 8 8 9 9 8 7 7 5 7 8 8 8 6 6 8 10 12 12 10 11 11 11 10 9 6 4 3 1
6 2 6 5 5 4 2 3 6 5 3 5 6 7 13 7 7 11 11 8 7 7 8 6 5 8 8 7 8 7 7 9 11 10 9 11 11 10 9 9 7 7 6 5
3 3 2 3 3 1 4 5 8 9 5 7 4 8 9 9 8 9 7 6 7 7 8 7 7 9 7 7 5 5 5 7 8 8 9 10 10 10 9 10 9 9 10 9
2 2 2 4 1 1 5 9 10 6 3 9 1 14 10 9 2 4 7 7 8 6 7 8 8 12 10 6 3 3 4 3 4 6 7 8 10 10 12 11 10 11 11 12
6 5 2 5 2 3 7 8 14 6 6 8 7 13 4 2 5 5 6 6 9 9 7 7 8 14 12 8 5 2 2 2 2 3 4 5 7 9 10 10 9 12 13 11
6 5 2 3 3 2 5 4 7 7 5 18 10 7 7 6 4 8 9 9 10 9 8 8 10 10 8 8 8 4 2 0 1 2 2 2 3 5 7 9 10 11 10 10
1 4 2 2 2 7 2 5 8 8 8 20 22 12 4 2 6 8 5 8 10 8 15 15 10 10 8 9 8 7 6 4 2 2 1 1 1 3 4 7 8 9 9 10
3 4 3 3 3 6 4 3 5 3 5 7 18 8 7 7 1 4 1 1 0 5 9 11 11 11 12 12 10 9 8 8 7 5 2 1 2 3 5 5 6 7 8 10
3 1 6 2 3 9 7 6 6 5 6 5 9 7 8 6 6 4 2 2 1 3 8 8 12 15 15 14 15 14 11 12 9 9 8 5 4 4 4 4 5 6 6 8
8 9 4 3 2 9 8 6 8 4 2 5 6 7 9 7 3 4 6 4 5 5 7 9 14 15 14 16 17 17 18 11 12 11 10 10 8 6 6 6 7 7 6 7
5 8 7 11 8 1 14 4 8 2 4 5 6 7 8 8 7 7 6 7 9 10 10 12 17 18 19 20 21 21 18 15 15 15 14 11 11 10 8 8 10 11 11 9
5 4 3 3 7 13 9 15 5 6 5 4 5 7 9 7 7 7 5 6 9 12 16 15 17 20 23 24 25 25 18 16 17 18 16 15 14 13 13 12 11 12 13 14
5 11 7 5 9 5 11 12 12 13 8 6 6 6 7 7 8 7 6 7 14 14 15 16 19 24 28 25 28 27 25 21 22 21 21 21 19 18 17 17 17 16 13 13
6 8 7 7 12 6 7 10 14 12 14 16 11 6 8 9 10 6 8 17 18 19 15 15 20 24 29 26 29 29 28 28 26 27 27 27 25 24 22 22 21 20 19 17
Wind_Direction
11 60 51 308 285 132 130 96 305 278 310 349 286 289 279 240 253 289 302 315 323 322 319 338 356 2 5 12 8 16 10 6 2 17 11 11 14 16 74 50 235 225 225 215
27 68 337 276 321 98 71 63 315 283 277 308 321 293 274 216 237 227 265 298 308 316 325 332 344 357 2 5 5 7 8 8 0 7 4 345 318 307 27 43 38 188 223 217
105 329 1 134 333 122 66 77 311 256 321 251 330 310 310 281 249 236 250 259 290 288 306 319 332 347 354 1 360 0 358 1 1 2 353 352 341 336 23 58 354 29 156 207
70 343 22 75 306 288 109 141 274 305 17 310 33 286 295 298 282 252 258 257 273 289 302 311 324 335 349 353 352 355 356 356 358 359 358 8 8 342 333 330 348 16 30 185
284 8 1 32 288 304 193 80 91 350 350 11 353 62 272 341 310 303 285 249 257 268 276 305 322 327 337 345 348 348 357 359 354 359 355 358 358 335 331 334 345 358 356 105
92 317 354 299 310 277 305 118 64 57 15 19 329 93 286 269 244 293 296 272 261 270 267 299 316 323 330 340 346 354 358 357 355 355 356 0 350 343 334 337 348 338 347 49
353 309 311 46 299 292 43 51 357 358 10 222 2 11 251 277 263 244 278 284 277 256 253 290 311 317 327 338 351 360 358 352 352 352 351 359 348 341 334 340 344 338 335 353
119 318 340 3 89 295 5 113 135 234 311 288 328 237 257 234 289 266 272 266 274 242 255 272 300 313 329 335 350 354 357 351 350 347 347 358 348 336 338 337 329 322 317 315
125 283 318 52 13 95 281 50 139 100 34 344 282 290 298 282 286 284 281 290 280 262 243 250 268 299 324 334 341 349 351 354 353 343 347 353 351 342 336 330 319 316 310 301
193 360 249 325 38 352 117 164 73 12 41 316 303 293 251 290 275 283 288 287 293 288 279 245 230 287 316 330 332 340 349 354 353 354 352 347 348 340 335 330 324 320 308 297
140 105 282 12 164 180 2 42 58 106 115 154 303 275 218 240 274 273 276 280 281 282 280 277 259 276 302 326 335 343 358 357 5 1 0 358 354 351 348 344 326 316 311 306
163 137 234 215 233 339 278 224 146 121 250 128 136 275 288 257 285 293 282 284 286 275 271 268 281 300 308 333 351 358 358 356 6 6 4 6 9 6 358 358 345 337 320 319
168 282 347 345 14 1 230 208 127 92 73 198 140 261 328 304 296 280 278 291 294 295 281 256 287 301 308 321 343 354 358 0 4 9 14 16 19 17 13 9 9 26 34 326
106 107 185 197 186 129 195 219 182 131 125 174 232 288 299 292 286 296 293 282 290 291 283 263 268 273 298 307 324 343 4 6 6 12 22 29 27 25 23 22 29 52 66 80
144 213 176 271 264 204 209 187 193 192 191 174 249 218 254 266 274 281 283 291 297 304 301 280 263 255 257 286 300 325 350 4 9 17 26 33 35 35 41 47 54 68 76 87
167 229 125 287 308 109 269 223 205 210 252 279 81 285 241 280 239 284 276 282 278 275 270 270 271 268 248 238 257 306 328 2 17 30 35 36 43 44 47 51 56 71 77 84
156 138 114 270 346 343 300 223 186 187 209 173 184 220 209 303 259 257 283 262 265 266 246 256 256 256 252 237 196 201 296 337 35 49 50 60 63 61 62 63 65 71 75 82
145 120 94 255 351 335 240 132 176 202 224 219 269 231 195 192 234 261 233 235 253 252 261 240 237 247 242 222 203 184 176 211 50 93 75 76 82 90 90 83 80 81 84 88
342 134 90 150 219 296 213 188 163 178 273 205 222 239 194 112 331 291 221 213 236 245 250 253 230 216 220 219 206 195 181 175 203 187 147 85 85 80 95 95 95 97 99 102
85 60 118 121 172 227 248 184 171 212 298 183 199 218 157 135 140 261 265 160 298 248 252 236 208 201 200 200 206 209 206 192 191 198 197 147 127 111 100 99 102 113 119 112
128 63 179 162 231 285 236 145 151 99 240 161 183 164 152 179 200 178 191 160 130 193 210 228 216 213 209 199 197 207 218 222 197 189 185 183 169 156 142 133 139 128 130 134
164 158 186 106 119 270 139 76 180 213 105 167 179 176 186 214 179 208 234 240 188 178 193 213 221 223 222 216 209 212 217 214 211 204 200 191 187 189 192 187 179 172 170 160
226 188 182 189 206 277 196 195 219 191 175 199 178 186 191 198 229 233 238 233 226 212 210 221 229 232 223 222 223 226 232 213 210 209 206 209 207 201 204 213 198 190 185 192
241 171 199 106 241 229 228 244 252 213 224 201 207 165 172 191 212 233 234 246 239 232 222 221 224 232 237 229 229 234 238 231 224 217 214 214 214 215 209 209 217 213 205 199
176 139 169 268 280 261 252 231 233 221 226 231 229 185 194 197 228 217 241 245 252 241 235 227 227 239 242 240 237 239 234 228 227 228 224 217 218 217 218 219 217 222 226 229
188 169 178 211 224 202 235 216 207 200 212 218 215 220 225 202 237 213 241 252 253 250 238 230 236 244 253 247 246 243 235 232 229 229 228 226 224 222 219 215 222 224 223 227